SCP
0 0 0 0 0 0 0 0 0 0 0 0 0 0 0 0 0 0 0 0 0 0 0 0 0 0 0 0 0 0 0 0 0 0 0 0 0 0 0 0 0 0 0
0 0 0 0 0 0 0 0 0 0 0 0 0 0 0 0 0 0 0 0 0 0 0 0 0 0 0 0 0 0 0 0 0 0 0 0 0 0 0 0 0 0 0
0 0 0 0 0 0 0 0 0 0 0 0 0 0 0 0 0 0 0 0 0 0 0 0 0 0 0 0 0 0 0 0 0 0 0 0 0 0 0 0 0 0 0
0 0 0 0 0 0 0 0 0 0 0 0 0 0 0 0 0 0 0 0 0 0 0 0 0 0 0 0 0 0 0 0 0 0 0 0 0 0 0 0 0 0 0
0 0 0 0 0 0 0 0 0 0 0 0 0 0 0 0 0 0 0 0 0 0 0 0 0 0 0 0 0 0 0 0 0 0 0 0 0 0 0 0 0 0 0
0 0 0 0 0 0 0 0 0 0 0 0 0 0 0 0 0 0 0 0 0 0 0 0 0 0 0 0 0 0 0 0 0 0 0 0 0 0 0 0 0 0 0
0 0 0 0 0 0 0 0 0 0 0 0 0 0 0 0 0 0 0 0 0 0 0 0 0 0 0 0 0 0 0 0 0 0 0 0 0 0 0 0 0 0 0
0 0 0 0 0 0 0 0 0 0 0 0 0 0 0 0 0 0 0 0 0 0 0 0 0 0 0 0 0 0 0 0 0 0 0 0 0 0 0 0 0 0 0
0 0 0 0 0 0 0 0 0 0 0 0 0 0 0 0 0 0 0 0 0 0 0 0 0 0 0 0 0 0 0 0 0 0 0 0 0 0 0 0 0 0 0
0 0 0 0 0 0 0 0 0 0 0 0 0 0 0 0 0 0 0 0 0 0 0 0 0 0 0 0 0 0 0 0 0 0 0 0 0 0 0 0 0 0 0
0 0 0 0 0 0 0 0 0 0 0 0 0 0 0 0 0 0 0 0 0 0 0 0 0 0 0 0 0 0 0 0 0 0 0 0 0 0 0 0 0 0 0
0 0 0 0 0 0 0 0 0 0 0 0 0 0 0 0 0 0 0 0 0 0 0 0 0 0 0 0 0 0 0 0 0 0 0 0 0 0 0 0 0 0 0
0 0 0 0 0 0 0 0 0 0 0 0 0 0 0 0 0 0 0 0 0 0 0 0 0 0 0 0 0 0 0 0 0 0 0 0 0 0 0 0 0 0 0
0 0 0 0 0 0 0 0 0 0 0 0 0 0 0 0 0 0 0 0 0 0 0 0 0 0 0 0 0 0 0 0 0 0 0 0 0 0 0 0 0 0 0
0 0 0 0 0 0 0 0 0 0 0 0 0 0 0 0 0 0 0 0 0 0 0 0 0 0 0 0 0 0 0 0 0 0 0 0 0 0 0 0 0 0 0
0 0 0 0 0 0 0 0 0 0 0 0 0 0 0 0 0 0 0 0 0 0 0 0 0 0 0 0 0 0 0 0 0 0 0 0 0 0 0 0 0 0 0
0 0 0 0 0 0 0 0 0 0 0 0 0 0 0 0 0 0 0 0 0 0 0 0 0 0 0 0 0 0 0 0 0 0 0 0 0 0 0 0 0 0 0
0 0 0 0 0 0 0 0 0 0 0 0 0 0 0 0 0 0 0 0 0 0 0 0 0 0 0 0 0 0 0 0 0 0 0 0 0 0 0 0 0 0 0
0 0 0 0 0 0 0 0 0 0 0 0 0 0 0 0 0 0 0 0 0 0 0 0 0 0 0 0 0 0 0 0 0 0 0 0 0 0 0 0 0 0 0
0 0 0 0 0 0 0 0 0 0 0 0 0 0 0 0 0 0 0 0 0 0 0 0 0 0 0 0 0 0 0 0 0 0 0 0 0 0 0 0 0 0 0
0 0 0 0 0 0 0 0 0 0 0 0 0 0 0 0 0 0 0 0 0 0 0 0 0 0 0 0 0 0 0 0 0 0 0 0 0 0 0 0 0 0 0
0 0 0 0 0 0 0 0 0 0 0 0 0 0 0 0 0 0 0 0 0 0 0 0 0 0 0 0 0 0 0 0 0 0 0 0 0 0 0 0 0 0 0
0 0 0 0 0 0 0 0 0 0 0 0 0 0 0 0 0 0 0 0 0 0 0 0 0 0 0 0 0 0 0 0 0 0 0 0 0 0 0 0 0 0 0
0 0 0 0 0 0 0 0 0 0 0 0 0 0 0 0 0 0 0 0 0 0 0 0 0 0 0 0 0 0 0 0 0 0 0 0 0 0 0 0 0 0 0
0 0 0 0 0 0 0 0 0 0 0 0 0 0 0 0 0 0 0 0 0 0 0 0 0 0 0 0 0 0 0 0 0 0 0 0 0 0 0 0 0 0 0
0 0 0 0 0 0 0 0 0 0 0 0 0 0 0 0 0 0 0 0 0 0 0 0 0 0 0 0 0 0 0 0 0 0 0 0 0 0 0 0 0 0 0
Wind_Speed
1 1 1 2 2 2 2 3 3 3 3 3 3 3 2 2 1 1 2 4 5 5 4 4 5 5 5 4 4 4 4 5 5 5 5 5 6 6 5 6 6 6 6
2 2 1 2 2 2 2 2 3 3 2 2 3 3 3 2 2 2 2 3 4 5 6 6 5 5 5 5 5 5 5 5 5 6 6 6 6 6 6 6 6 7 7
2 2 1 1 2 2 2 1 2 1 1 2 2 3 2 2 2 2 3 2 3 4 5 6 5 5 6 5 5 5 5 6 6 6 6 6 6 6 6 7 7 7 7
2 2 2 1 2 2 1 1 1 1 1 1 1 2 2 1 2 2 2 3 2 2 3 6 6 6 6 6 5 6 6 6 6 7 7 6 7 7 6 7 8 8 8
2 2 2 1 1 1 1 2 1 1 1 1 1 1 1 1 2 3 3 3 3 3 2 3 5 6 6 5 5 6 6 6 7 7 7 7 7 7 7 7 8 8 8
1 1 1 2 1 1 1 2 2 2 2 2 1 1 2 2 2 2 3 2 2 3 3 3 2 3 5 4 5 6 6 6 7 7 7 7 7 8 8 8 9 9 9
1 1 1 1 1 1 2 3 2 2 2 1 0 1 2 3 3 2 2 2 2 3 3 3 2 2 2 4 4 5 6 7 8 7 7 7 8 8 8 9 9 9 9
1 1 2 2 1 1 2 2 2 2 2 2 2 1 1 2 2 2 2 2 2 2 3 3 3 2 2 2 2 5 7 8 8 7 7 7 8 8 9 10 10 10 11
1 1 1 1 1 1 2 2 2 3 3 3 2 3 2 3 1 2 2 2 2 2 2 2 3 3 3 2 2 3 5 8 8 7 7 8 8 8 9 10 11 11 11
1 0 1 0 1 1 1 2 2 2 3 3 3 3 3 2 2 1 2 2 2 3 3 2 2 3 3 2 2 2 4 6 7 8 8 8 9 9 9 10 11 12 12
1 1 0 0 1 1 1 2 2 3 2 3 3 2 2 2 2 2 2 2 2 2 2 3 2 3 3 2 2 1 4 5 6 7 8 8 9 9 10 10 11 12 12
1 1 1 1 1 1 1 2 2 3 3 3 3 2 2 2 3 2 3 3 3 2 3 2 2 2 2 1 1 2 4 5 6 6 7 8 9 10 10 11 12 12 12
2 1 1 1 1 2 2 2 2 3 3 3 3 3 2 3 2 2 2 2 2 1 1 1 1 2 1 1 1 2 4 5 6 6 6 7 8 9 10 11 12 12 13
2 2 1 2 2 2 2 2 2 3 3 3 3 2 2 2 2 2 2 2 1 1 1 2 1 1 1 1 1 3 2 4 5 6 6 7 8 9 10 10 11 12 12
2 1 1 1 2 2 2 2 2 2 2 2 3 3 2 1 1 2 2 2 3 2 2 2 1 0 0 0 1 1 1 3 5 6 6 7 7 8 9 10 11 11 12
2 2 1 1 2 2 1 1 1 2 2 2 2 2 2 2 1 1 1 1 2 2 2 1 0 0 0 1 2 1 1 4 4 6 6 6 6 7 8 10 10 10 11
1 1 1 1 2 2 1 1 1 1 2 2 1 2 2 2 2 1 1 2 2 2 2 1 0 0 0 1 1 1 1 1 2 5 6 6 7 8 8 8 9 10 11
1 1 1 1 1 2 1 1 1 1 1 1 1 1 1 1 1 1 0 1 1 1 2 2 0 0 1 1 1 1 2 2 2 4 5 6 7 7 8 9 9 10 11
1 1 1 1 1 2 1 0 0 1 1 1 1 0 0 1 1 0 0 0 1 0 1 1 1 0 1 1 1 2 2 2 3 3 5 5 6 7 8 9 9 10 11
1 1 1 1 1 1 1 1 1 1 1 1 1 1 0 1 1 1 1 1 1 1 1 1 0 0 1 1 1 1 2 2 3 3 4 5 6 7 8 10 10 11 11
1 0 1 1 1 1 1 1 1 1 1 1 2 2 2 1 1 1 1 1 2 2 1 1 0 1 1 1 1 1 2 3 2 2 3 3 3 3 4 7 9 10 10
0 1 1 1 1 1 1 2 2 1 1 1 1 2 2 2 2 2 3 2 2 2 1 1 0 0 1 1 1 1 1 2 3 2 3 4 3 3 3 3 8 10 10
1 1 1 1 1 1 1 2 2 2 2 1 1 1 1 2 2 2 4 4 4 3 1 0 1 1 1 1 1 1 1 2 3 3 3 4 3 3 3 5 10 11 11
1 1 1 1 1 1 1 2 3 2 2 2 2 2 2 2 2 2 3 3 3 2 2 1 1 0 0 0 0 0 1 2 2 2 2 3 3 3 4 4 8 11 12
1 1 1 2 1 1 1 2 3 1 2 2 2 2 1 2 3 4 3 3 3 2 3 2 2 2 3 3 2 1 1 1 2 3 2 2 3 4 4 3 5 9 12
1 1 2 2 1 0 1 2 2 1 1 1 2 1 2 2 3 4 3 3 2 1 1 2 3 3 2 3 4 1 0 1 2 3 2 2 3 4 4 3 3 4 6
Wind_Direction
187 182 183 186 197 192 186 201 215 214 223 213 218 220 224 230 195 160 165 188 202 220 233 243 250 240 245 253 261 266 275 281 282 286 285 293 293 289 287 285 286 292 294
195 184 196 190 205 193 197 208 218 216 227 213 222 221 222 236 208 177 171 189 204 221 233 240 250 247 252 257 264 269 274 281 283 285 283 283 290 287 283 283 284 289 292
199 187 195 198 205 199 207 214 228 217 226 224 221 230 222 221 216 198 187 185 192 214 230 237 252 253 256 261 269 275 281 287 289 290 288 289 292 290 284 284 284 284 288
203 188 188 208 210 196 198 205 208 214 223 230 231 243 242 232 230 217 204 194 185 190 216 230 247 257 253 260 267 272 281 290 293 296 295 294 297 295 298 297 289 284 285
205 194 194 210 203 198 202 214 212 195 207 235 235 243 248 244 238 230 213 201 188 182 189 212 235 253 252 259 268 274 281 287 291 295 296 301 304 298 296 300 301 291 288
214 199 202 207 199 197 212 205 214 215 204 208 243 271 272 255 241 230 218 205 192 191 192 199 213 246 254 261 272 281 285 289 294 295 295 300 304 304 301 302 300 299 292
221 208 221 206 197 210 221 214 209 210 215 188 172 292 288 260 241 234 210 193 202 204 198 198 201 204 238 252 269 283 286 294 295 295 296 301 303 306 308 308 307 303 302
246 237 209 210 209 223 237 231 211 213 226 200 178 197 261 277 265 243 211 209 210 203 210 212 204 197 210 204 246 275 286 293 294 297 303 305 303 303 309 310 307 306 303
269 264 244 216 208 206 231 236 227 222 215 230 205 185 192 215 272 255 230 216 205 208 218 217 206 198 210 199 206 251 283 294 291 297 304 309 306 305 307 310 309 308 308
285 322 281 252 242 225 242 249 252 248 218 225 238 237 226 187 175 239 264 240 228 223 219 219 212 205 206 203 212 252 283 293 291 297 303 308 308 307 307 311 312 310 311
287 274 285 227 241 250 249 257 262 249 231 229 232 230 248 249 195 188 237 249 263 248 228 216 209 205 203 202 198 256 299 296 295 296 302 308 309 310 311 313 315 314 313
302 296 292 247 240 243 248 255 256 256 249 244 243 222 214 211 214 200 219 231 243 255 245 223 210 194 187 193 205 313 302 299 301 301 309 311 312 314 316 317 316 316 314
277 267 281 248 243 239 242 249 252 252 246 242 240 233 228 220 209 200 203 230 246 263 248 236 216 171 176 152 178 297 291 299 303 308 316 319 319 319 316 315 317 317 316
241 251 269 254 244 244 252 248 248 250 242 241 245 232 235 227 204 194 195 204 237 251 241 241 224 167 149 157 240 280 270 291 305 313 315 319 322 320 319 319 322 323 321
246 245 247 270 271 265 264 254 247 257 247 242 240 226 216 216 217 213 189 182 187 225 247 232 200 193 185 154 260 275 279 300 311 314 317 319 320 320 325 326 326 327 328
234 225 240 249 268 272 278 277 272 270 273 259 237 212 193 187 195 214 193 207 205 202 239 255 209 325 327 316 300 320 293 315 311 309 312 314 317 321 324 323 322 325 327
230 226 246 253 260 261 261 259 269 272 272 280 259 202 201 182 172 189 203 211 208 191 229 275 56 40 16 298 318 312 289 277 287 300 306 312 315 318 320 323 327 328 328
267 254 269 268 277 276 267 254 277 275 267 273 266 208 185 153 144 166 166 197 204 194 199 240 262 18 336 331 352 331 326 322 303 305 313 318 322 326 326 327 330 331 330
285 295 290 282 282 281 266 269 317 310 296 299 295 209 110 113 124 120 94 142 148 94 170 204 241 333 344 13 13 345 339 335 326 341 337 330 330 331 331 331 330 329 329
284 303 329 327 313 310 320 76 62 31 11 2 357 22 94 135 140 133 94 98 101 100 107 129 265 316 351 8 33 352 339 336 326 336 337 335 335 336 333 332 330 328 329
299 7 37 346 341 348 42 70 79 77 63 39 27 31 41 69 115 138 121 114 116 124 121 144 255 355 3 11 353 346 327 321 324 344 338 330 331 325 324 326 329 329 330
50 42 45 7 11 3 18 40 46 66 69 67 59 49 43 42 66 71 72 65 89 122 143 157 181 184 304 326 338 335 324 327 321 345 343 319 327 317 314 315 332 335 335
25 50 64 61 40 23 5 31 37 55 61 51 74 64 33 45 47 71 71 60 47 43 58 144 169 201 224 284 308 334 339 322 299 313 329 310 317 308 313 326 334 340 342
27 93 81 68 59 15 11 33 49 58 62 41 59 74 71 64 65 75 84 74 61 47 47 56 137 133 64 43 292 284 314 322 310 325 329 304 310 305 315 316 334 347 349
30 60 75 71 60 14 31 46 38 63 64 48 44 60 73 82 75 64 73 75 55 35 39 48 50 44 36 19 9 29 345 348 327 325 337 310 311 313 307 307 328 344 346
41 54 64 64 51 8 28 47 40 74 69 60 44 45 59 66 68 63 74 89 70 17 28 38 42 36 35 32 17 29 353 340 321 316 331 336 318 331 324 310 324 339 339